This demonstration page uses our WeatherBlox Daily Observations layout. Learn more.

41.55636, -103.73856

Hourly Observations for November 25, 2015

Temp ( °F °C ) Dew Point ( °F °C ) Humidity (%) Winds ( mph kmh ) Pressure ( in mb ) Visibility ( mi km ) Precip ( " mm )
12:53 am 00:53 Clear 29 -1.7 23 -5 78 78 N 7 11 29.73 1007 10 16.0934 0 0
1:53 am 01:53 Clear 29 -1.7 22 -5.6 75 75 N 3 6 29.72 1007 10 16.0934 0 0
2:53 am 02:53 Clear 25 -3.9 21 -6.1 85 85 NNW 3 6 29.75 1008 10 16.0934 0 0
3:53 am 03:53 Clear 27 -2.8 22 -5.6 81 81 N 7 11 29.77 1008 10 16.0934 0 0
4:53 am 04:53 Clear 30 -1.1 23 -5 75 75 Calm 29.81 1010 10 16.0934 0 0
5:53 am 05:53 Clear 33 0.6 24 -4.4 70 70 N 10 17 29.87 1011 10 16.0934 0 0
6:53 am 06:53 Clear 32 0 24 -4.4 73 73 N 6 9 29.94 1014 10 16.0934 0 0
7:53 am 07:53 Mostly Sunny 31 -0.6 24 -4.4 76 76 NNW 7 11 30 1016 10 16.0934 0 0
8:06 am 08:06 Mostly Cloudy 30 -1 25 -4 80 80 NNW 9 15 30.06 1018 10 16.0934 0 0
8:53 am 08:53 Cloudy 32 0 24 -4.4 73 73 N 17 28 30.02 1017 10 16.0934 0 0
9:53 am 09:53 Cloudy 33 0.6 24 -4.4 70 70 N 15 24 30.04 1017 10 16.0934 0 0
10:53 am 10:53 Cloudy 33 0.6 24 -4.4 70 70 N 12 19 30.07 1018 10 16.0934 0 0
11:53 am 11:53 Cloudy 33 0.6 24 -4.4 70 70 N 12 19 30.07 1018 10 16.0934 0 0
12:53 pm 12:53 Cloudy 33 0.6 23 -5 66 66 N 13 20 30.06 1018 10 16.0934 0 0
1:53 pm 13:53 Cloudy 32 0 23 -5 69 69 NE 9 15 30.04 1017 10 16.0934 0 0
2:53 pm 14:53 Cloudy 32 0 24 -4.4 73 73 NE 9 15 30.08 1019 10 16.0934 0 0
3:53 pm 15:53 Cloudy 30 -1.1 24 -4.4 79 79 NE 15 24 30.12 1020 10 16.0934 0 0
4:09 pm 16:09 Cloudy 30 -1.1 23 -5 75 75 NNE 16 26 30.15 1021 10 16.0934 0 0
4:53 pm 16:53 Cloudy 29 -1.7 22 -5.6 75 75 NNE 13 20 30.14 1021 10 16.0934 0 0
5:08 pm 17:08 Cloudy 28 -2 23 -5 80 80 NE 10 17 30.21 1023 10 16.0934 0 0
5:53 pm 17:53 Cloudy 27 -2.8 22 -5.6 81 81 NE 14 22 30.16 1021 10 16.0934 0 0
6:53 pm 18:53 Cloudy 26 -3.3 21 -6.1 81 81 NNE 12 19 30.21 1023 10 16.0934 0 0
7:01 pm 19:01 Cloudy 26 -3.3 21 -6.1 81 81 NNE 10 17 30.3 1026 10 16.0934 0 0
7:53 pm 19:53 Cloudy with Mist and Fog 25 -3.9 22 -5.6 88 88 NE 9 15 30.23 1024 6 9.65604 0 0
8:00 pm 20:00 Cloudy with Mist and Fog 25 -4 23 -5 93 93 NE 8 13 30.3 1026 4 6.43736 0 0
8:10 pm 20:10 Cloudy with Mist and Fog 25 -4 21 -6 86 86 NNE 9 15 30.3 1026 6 9.65604 0 0
8:20 pm 20:20 Cloudy with Mist and Fog 25 -4 23 -5 93 93 NNE 10 17 30.3 1026 6 9.65604 0 0
8:28 pm 20:28 Cloudy 25 -4 21 -6 86 86 NNE 9 15 30.3 1026 9 14.48406 0 0
8:48 pm 20:48 Cloudy with Mist and Fog 25 -4 21 -6 86 86 NNE 13 20 30.3 1026 4 6.43736 0 0
8:53 pm 20:53 Cloudy with Mist and Fog 24 -4.4 22 -5.6 91 91 NNE 13 20 30.25 1024 4 6.43736 0 0
9:23 pm 21:23 Cloudy with Mist and Fog 24 -4.4 21 -6.1 88 88 NNE 14 22 30.36 1028 4 6.43736 0 0
9:37 pm 21:37 Cloudy 24 -4.4 20 -6.7 84 84 NNE 14 22 30.36 1028 9 14.48406 0 0
9:53 pm 21:53 Cloudy 24 -4.4 20 -6.7 84 84 NNE 14 22 30.25 1024 8 12.87472 0 0
10:03 pm 22:03 Cloudy 23 -5 19 -7 86 86 NNE 14 22 30.33 1027 7 11.26538 0 0
10:10 pm 22:10 Cloudy with Mist and Fog 23 -5 19 -7 86 86 NE 14 22 30.33 1027 6 9.65604 0 0
10:53 pm 22:53 Cloudy with Mist and Fog 22 -5.6 19 -7.2 89 89 NE 14 22 30.27 1025 6 9.65604 0 0
11:53 pm 23:53 Cloudy 21 -6.1 18 -7.8 88 88 NNE 13 20 30.27 1025 10 16.0934 0 0

Powered by AerisWeather